Orbital Elements at Epoch 2459000.5 (2020-May-31.0) TDB
Reference: JPL 23 (heliocentric ecliptic J2000)
Element | Value | Uncertainty (1-sigma) | Units |
e | .05856828384874038 | 4.3458e-08 | |
a | 3.149765238779151 | 2.5628e-08 | au |
q | 2.965288894217438 | 1.3739e-07 | au |
i | 9.931995227380458 | 4.9662e-06 | deg |
node | 230.575262346762 | 2.5737e-05 | deg |
peri | 4.871984176155305 | 5.1368e-05 | deg |
M | 126.978879235421 | 4.7238e-05 | deg |
tp | 2458280.313967564553 (2018-Jun-10.81396756) | 0.00026484 | TDB |
period | 2041.811781911189 5.59 | 2.4919e-05 6.822e-08 | d yr |
n | .1763139987678152 | 2.1518e-09 | deg/d |
Q | 3.334241583340864 | 2.7129e-08 | au |
|
| | Orbit Determination Parameters
Additional Information
|